Location: Rio Negrinho
(26.2394°S, 49.4999°W)
Time: 10:59:03
(UTC+00:00)

Hubble Space Telescope - Pass Details

Date: 31 July 2021
Orbit: 535 x 539 km, 28.5° (Epoch: 15 September)

Event Time Altitude Azimuth Distance (km) Brightness Sun altitude
Exits shadow 09:00:38 21° 263° (W) 1,255 2.0 -13.1°
Maximum altitude 09:03:19 65° 185° (S) 593 0.9 -12.5°
Drops below altitude 10° 09:07:28 10° 102° (ESE) 1,797 4.5 -11.6°
Sets 09:09:45 0° 99° (E) 2,689 5.7 -11.1°
